Wind_Speed
5 4 7 5 5 3 2 3 4 4 5 7 7 6 6 5 4 2 2 1 4 7 8 5 10 11 12 14 14 13 12 13 13 13 13 12 14 13 12 12 12 12 12
7 1 6 5 5 4 4 3 3 2 2 2 3 3 2 0 2 3 2 1 1 4 6 6 7 8 9 12 13 13 14 14 15 15 14 14 14 14 11 11 11 12 13
6 1 5 5 4 3 3 4 4 2 2 4 3 4 4 4 2 5 3 4 3 3 6 8 6 6 8 8 11 11 12 14 15 15 15 14 16 14 12 11 11 12 12
4 3 2 4 3 3 4 5 4 4 5 6 5 6 7 5 5 4 4 4 4 5 7 6 7 7 7 7 8 9 10 12 13 13 14 13 14 14 12 12 12 11 12
5 3 1 3 2 5 5 4 4 4 5 5 5 5 5 3 2 2 2 3 1 4 7 3 4 9 7 7 6 5 7 7 9 10 11 11 13 14 15 13 13 12 11
3 1 1 2 1 4 5 4 2 2 3 5 6 6 6 5 4 4 3 3 4 6 4 5 5 4 5 6 8 6 5 5 7 6 9 9 9 12 13 13 12 11 10
5 3 3 4 2 1 3 3 1 0 2 3 3 3 6 7 10 10 9 7 6 6 7 3 7 9 6 7 12 10 8 7 5 4 4 6 6 7 9 9 9 9 8
5 4 4 5 4 2 2 1 0 1 1 2 2 2 3 4 6 9 10 10 8 7 6 4 5 6 6 10 18 14 11 10 7 5 4 3 3 3 4 4 5 5 6
5 3 4 3 4 2 0 1 1 1 1 2 3 2 1 1 2 5 5 6 7 6 5 5 5 6 8 13 14 13 12 10 9 8 6 4 3 2 0 1 3 3 4
11 10 8 7 6 5 5 2 3 4 4 4 4 4 2 1 1 3 4 6 6 6 5 6 8 6 8 5 14 14 11 10 9 9 7 6 5 3 3 4 6 5 4
15 13 10 9 9 8 7 7 6 5 5 6 7 7 6 6 6 5 6 7 7 6 6 9 12 11 6 4 9 10 11 13 11 9 10 11 8 5 4 6 6 6 8
18 16 13 10 9 9 10 9 9 8 4 7 9 9 9 9 10 10 9 8 9 8 7 7 9 14 12 10 9 9 8 8 11 13 13 16 13 9 8 8 8 7 6
22 19 15 12 10 10 10 10 10 10 9 6 8 10 10 10 11 12 10 11 12 11 11 10 11 14 14 14 14 16 14 13 14 14 12 17 14 13 12 11 11 10 10
25 19 17 11 7 8 7 13 13 10 10 8 7 7 8 10 10 14 14 12 14 15 14 14 13 13 15 17 16 16 16 16 17 16 15 16 16 16 16 15 11 14 14
27 24 19 15 11 10 10 17 17 14 10 9 10 7 8 9 9 10 12 14 16 16 17 15 15 15 15 15 17 19 20 18 17 16 20 19 20 20 19 17 14 15 14
27 27 30 13 12 6 13 11 12 16 13 13 12 11 12 10 11 10 9 13 15 16 17 18 17 17 18 17 16 18 20 21 20 20 18 20 21 21 22 21 19 18 18
26 27 22 31 21 20 24 15 15 8 23 15 12 12 13 11 11 10 10 12 14 16 16 16 17 18 17 24 22 19 18 20 20 20 22 20 18 20 21 21 19 19 21
25 25 25 28 33 27 25 21 13 8 6 18 12 10 12 11 10 12 14 16 16 19 17 19 19 18 17 19 23 21 21 17 19 22 23 21 18 18 20 18 20 20 24
27 29 29 27 28 26 25 27 14 13 12 17 13 10 12 9 9 13 15 17 18 17 21 22 22 20 18 15 22 24 20 19 18 19 23 21 20 18 20 21 19 19 21
27 30 28 28 29 27 25 20 11 10 15 16 13 10 9 8 8 12 12 15 17 18 20 19 13 17 19 20 18 21 23 21 20 22 24 22 19 21 23 21 21 20 19
25 28 28 29 31 28 27 19 4 10 13 19 14 9 10 9 9 9 11 14 16 17 17 16 15 16 18 19 18 21 21 23 23 23 27 27 23 26 22 20 21 22 22
24 24 29 34 31 26 24 30 7 12 20 17 13 11 12 10 10 12 14 14 16 16 17 17 15 16 19 17 21 23 24 21 24 27 26 27 24 23 23 22 19 20 21
23 22 26 30 31 24 20 22 7 18 14 14 9 7 9 10 12 15 15 16 13 14 14 16 17 18 19 20 20 20 20 21 23 21 17 28 26 24 23 22 22 19 21
20 23 23 27 29 23 18 17 11 3 1 5 5 7 10 11 13 16 18 12 12 14 13 12 18 19 20 21 21 21 21 22 22 22 20 21 25 28 25 23 23 20 20
19 20 21 24 28 27 19 14 11 4 3 3 4 7 10 12 14 14 11 9 8 7 8 12 17 21 21 22 22 22 20 21 21 20 21 19 18 26 24 24 22 22 22
20 20 20 21 26 26 19 16 9 6 6 6 7 10 12 13 9 7 6 8 8 9 10 14 17 20 20 20 20 22 20 18 19 19 17 17 16 22 25 24 24 23 23
Wind_Direction
83 141 186 175 175 194 159 120 105 93 83 74 81 73 65 73 87 96 59 40 69 82 97 83 95 93 87 82 81 84 89 98 98 91 93 97 93 84 82 81 85 87 83
64 64 157 156 175 186 168 171 143 125 116 139 151 155 146 115 84 87 110 104 99 93 126 150 113 105 91 87 82 84 88 96 95 95 96 91 92 88 85 83 85 87 87
47 17 142 146 160 165 187 152 129 122 125 124 137 141 119 116 84 130 143 137 151 179 161 162 149 133 106 91 91 87 91 91 92 95 94 94 91 84 82 81 85 79 77
28 8 84 116 132 148 164 136 124 111 120 122 116 108 114 92 97 133 164 169 174 216 183 180 164 147 119 106 95 94 89 91 94 98 96 93 92 91 82 78 76 73 74
21 8 3 104 107 147 146 149 146 144 156 156 152 152 159 148 122 122 169 193 195 222 254 194 180 180 151 125 115 105 102 92 105 107 109 104 94 91 77 65 65 64 66
29 345 2 64 64 154 158 146 155 155 196 189 196 205 215 220 219 227 237 246 243 234 238 263 245 284 189 176 138 139 127 110 113 126 122 113 99 91 81 67 58 56 55
47 25 32 34 11 116 137 110 81 115 167 172 196 211 232 239 236 237 240 236 245 260 254 243 239 256 257 197 170 159 163 176 166 152 140 133 116 92 84 79 55 48 42
56 54 31 28 341 41 74 17 115 3 322 249 221 253 250 261 264 244 234 237 240 243 245 261 281 238 245 231 193 173 180 180 183 180 174 172 155 120 93 69 60 34 33
44 58 47 29 322 341 66 308 297 297 280 275 274 249 322 322 287 272 251 240 239 231 233 226 252 260 245 255 196 193 188 193 188 192 192 197 237 249 66 345 352 354 6
31 31 18 4 345 324 288 243 258 254 260 256 267 267 265 297 260 239 257 260 238 238 226 212 222 240 255 211 208 201 199 207 208 205 221 223 223 233 287 308 308 317 338
29 22 14 13 0 349 321 282 256 252 259 257 258 258 265 268 268 248 234 246 258 252 237 222 233 226 256 256 207 219 221 204 212 227 240 244 240 235 251 272 284 303 322
28 20 18 13 358 348 336 323 305 277 257 262 258 261 258 261 262 264 255 252 256 254 240 246 234 231 240 243 228 238 236 222 242 238 251 245 243 246 241 263 271 284 303
18 18 2 12 0 349 341 319 309 303 279 268 251 254 255 255 261 260 258 261 255 251 252 242 243 239 237 231 231 237 237 231 241 243 233 228 231 245 253 257 273 275 285
14 16 3 347 357 343 340 330 293 271 276 280 272 272 263 259 257 252 250 245 257 260 250 248 245 243 239 241 238 240 245 243 246 248 231 223 234 242 247 247 252 283 271
5 3 348 330 316 324 318 313 292 246 241 256 250 254 263 264 266 253 261 271 259 262 259 253 248 248 240 240 243 245 245 242 240 248 243 235 239 241 243 240 247 269 256
4 358 340 336 286 317 340 330 325 255 228 234 246 243 260 253 261 255 266 274 272 265 268 257 250 250 247 239 236 243 244 245 244 241 249 244 242 240 243 245 249 249 251
5 358 353 332 354 2 359 337 347 11 236 230 234 248 251 254 265 273 262 269 276 271 268 259 264 264 268 248 243 243 242 251 250 246 241 243 245 245 246 252 248 236 256
2 358 356 356 356 357 339 351 336 310 264 216 222 242 249 252 253 264 278 284 276 281 276 275 267 271 273 263 242 239 243 245 262 250 238 240 239 246 250 252 247 241 240
358 356 357 358 352 343 339 334 292 262 234 212 210 224 235 249 259 273 277 282 284 280 275 281 264 266 273 266 246 243 243 252 262 252 241 232 238 249 255 254 244 244 246
1 355 354 353 349 343 337 340 280 199 219 190 206 210 229 243 266 271 279 283 284 282 286 293 287 263 265 259 252 251 252 249 255 252 244 241 248 252 250 263 249 248 251
358 354 349 349 349 345 349 4 284 129 210 180 190 205 247 246 256 276 289 292 284 280 286 289 283 275 267 263 254 254 252 254 253 253 246 247 260 248 245 256 247 245 249
353 355 350 347 358 349 355 8 9 151 164 169 191 203 220 253 264 282 299 303 293 289 289 279 278 272 269 263 253 257 257 259 257 252 250 254 246 248 250 254 254 245 251
345 352 351 358 2 355 351 4 62 132 159 191 206 224 258 273 280 290 299 297 276 274 281 276 273 268 267 267 261 258 259 256 254 258 250 248 247 244 250 258 258 257 255
344 351 347 3 0 357 347 346 17 116 104 209 245 262 285 289 294 298 294 294 276 276 280 278 269 271 269 268 268 263 259 258 261 254 261 248 250 247 248 256 260 260 264
339 344 343 358 1 352 340 337 332 313 301 282 306 316 314 312 304 298 288 286 294 292 289 282 279 277 276 271 267 264 258 259 262 254 259 263 249 231 246 251 257 259 260
327 330 333 347 354 351 334 326 312 280 290 317 332 335 325 311 289 284 283 271 277 285 294 301 298 287 276 269 266 267 258 249 256 263 250 255 241 235 239 245 250 255 260
Height
5893 5894 5895 5896 5896 5896 5896 5896 5896 5897 5897 5898 5899 5899 5899 5901 5903 5903 5903 5904 5904 5905 5905 5907 5907 5908 5908 5909 5909 5909 5910 5910 5910 5912 5913 5915 5914 5915 5915 5916 5915 5915 5915
5893 5895 5895 5896 5896 5897 5896 5897 5897 5897 5898 5898 5899 5900 5900 5901 5902 5903 5904 5905 5905 5906 5906 5907 5908 5909 5910 5911 5912 5911 5912 5912 5912 5913 5915 5916 5916 5916 5918 5918 5918 5918 5917
5892 5894 5895 5896 5896 5896 5896 5896 5897 5898 5898 5899 5900 5901 5901 5902 5902 5903 5905 5905 5906 5907 5907 5907 5908 5910 5911 5912 5914 5914 5914 5914 5915 5915 5916 5918 5918 5918 5919 5920 5920 5920 5920
5892 5894 5895 5895 5895 5894 5895 5896 5897 5898 5899 5899 5901 5902 5903 5903 5903 5904 5905 5905 5906 5906 5906 5904 5907 5909 5911 5913 5914 5915 5916 5916 5917 5917 5919 5920 5920 5921 5922 5922 5922 5922 5921
5893 5895 5896 5894 5894 5895 5895 5896 5896 5897 5898 5898 5900 5901 5902 5903 5904 5904 5905 5906 5906 5907 5906 5906 5906 5910 5911 5913 5915 5916 5917 5918 5919 5920 5920 5922 5922 5923 5923 5924 5923 5923 5923
5894 5896 5896 5894 5895 5895 5895 5895 5896 5897 5898 5899 5899 5900 5902 5903 5903 5903 5904 5906 5907 5907 5907 5908 5907 5907 5910 5913 5914 5916 5917 5918 5920 5922 5922 5922 5923 5923 5923 5924 5925 5925 5924
5896 5897 5896 5895 5895 5895 5896 5896 5897 5898 5898 5898 5899 5900 5901 5901 5902 5902 5903 5904 5906 5908 5908 5907 5907 5908 5910 5912 5913 5914 5915 5918 5920 5921 5923 5923 5923 5923 5923 5923 5925 5925 5925
5897 5897 5897 5896 5896 5895 5895 5896 5897 5898 5899 5899 5899 5900 5900 5901 5901 5902 5902 5903 5904 5906 5908 5909 5907 5907 5909 5911 5913 5912 5914 5916 5919 5920 5922 5923 5923 5923 5923 5924 5924 5925 5925
5899 5898 5897 5896 5895 5894 5893 5894 5896 5897 5898 5898 5899 5899 5900 5900 5900 5901 5901 5902 5903 5904 5906 5907 5908 5908 5909 5910 5911 5912 5914 5916 5918 5919 5920 5922 5923 5923 5923 5924 5925 5925 5926
5900 5899 5898 5896 5896 5895 5894 5893 5895 5896 5896 5897 5898 5898 5898 5899 5900 5900 5901 5902 5902 5903 5905 5906 5907 5908 5908 5908 5910 5912 5913 5915 5916 5918 5919 5920 5922 5922 5923 5925 5925 5926 5926
5900 5899 5897 5896 5895 5895 5895 5894 5894 5894 5895 5896 5896 5897 5898 5898 5899 5900 5900 5901 5902 5903 5904 5905 5906 5907 5907 5908 5909 5911 5913 5915 5916 5917 5917 5919 5920 5921 5922 5924 5925 5925 5925
5901 5899 5896 5894 5894 5894 5895 5895 5895 5895 5894 5895 5895 5895 5896 5897 5898 5898 5899 5900 5901 5902 5903 5904 5905 5905 5906 5907 5908 5909 5911 5913 5914 5914 5916 5917 5918 5920 5921 5922 5923 5924 5925
5901 5899 5896 5894 5893 5892 5892 5892 5893 5894 5894 5893 5893 5894 5894 5895 5896 5896 5897 5898 5899 5900 5901 5901 5902 5904 5905 5906 5907 5908 5909 5910 5911 5912 5913 5914 5915 5917 5919 5920 5922 5923 5924
5901 5899 5896 5894 5892 5890 5889 5888 5888 5889 5891 5892 5892 5893 5893 5893 5894 5894 5895 5892 5896 5897 5899 5900 5900 5901 5903 5904 5905 5906 5906 5908 5908 5909 5910 5911 5912 5914 5916 5917 5919 5920 5922
5899 5897 5895 5891 5890 5888 5886 5885 5883 5884 5885 5888 5889 5890 5891 5891 5891 5891 5893 5893 5893 5895 5897 5897 5898 5899 5900 5901 5902 5904 5903 5905 5906 5906 5907 5908 5909 5910 5912 5914 5916 5917 5918
5900 5895 5889 5885 5882 5885 5884 5879 5879 5880 5882 5884 5888 5888 5889 5889 5889 5889 5890 5891 5893 5892 5892 5894 5895 5896 5897 5898 5898 5900 5900 5900 5903 5904 5904 5905 5906 5907 5908 5910 5912 5913 5915
5900 5895 5894 5884 5869 5879 5877 5874 5875 5876 5878 5881 5885 5887 5887 5887 5888 5888 5888 5889 5890 5890 5891 5892 5893 5894 5894 5894 5894 5895 5896 5897 5899 5900 5900 5902 5904 5905 5905 5906 5908 5910 5911
5899 5897 5893 5890 5882 5880 5875 5872 5872 5874 5875 5877 5881 5883 5884 5886 5886 5887 5886 5886 5886 5886 5888 5889 5890 5889 5889 5889 5890 5892 5894 5894 5895 5896 5897 5898 5900 5901 5902 5902 5904 5907 5907
5898 5895 5892 5888 5884 5879 5872 5867 5868 5868 5870 5875 5878 5881 5881 5883 5884 5884 5884 5884 5884 5883 5884 5883 5884 5884 5886 5886 5887 5889 5890 5891 5891 5892 5894 5895 5896 5897 5898 5898 5899 5902 5904
5899 5895 5892 5890 5886 5878 5873 5865 5861 5861 5865 5870 5875 5878 5879 5880 5880 5881 5881 5881 5880 5881 5881 5880 5878 5880 5881 5882 5883 5885 5886 5886 5887 5889 5890 5891 5892 5894 5895 5894 5896 5896 5899
5901 5896 5893 5891 5886 5878 5872 5863 5857 5858 5862 5868 5873 5875 5876 5876 5877 5879 5879 5879 5879 5877 5877 5877 5877 5877 5877 5877 5878 5878 5880 5881 5882 5884 5885 5887 5888 5889 5891 5891 5892 5893 5894
5901 5898 5894 5890 5884 5878 5873 5865 5860 5859 5864 5869 5873 5872 5873 5876 5876 5877 5877 5876 5875 5874 5873 5873 5873 5873 5872 5873 5873 5874 5874 5876 5876 5878 5880 5881 5882 5884 5886 5887 5889 5890 5890
5900 5896 5894 5890 5886 5880 5876 5872 5867 5867 5870 5871 5872 5874 5875 5875 5875 5875 5874 5873 5872 5871 5870 5869 5868 5868 5868 5869 5869 5870 5871 5871 5871 5873 5873 5875 5876 5879 5881 5883 5885 5886 5886
5901 5897 5893 5888 5885 5882 5878 5875 5873 5872 5873 5873 5873 5873 5874 5873 5873 5872 5871 5870 5869 5868 5867 5866 5865 5865 5864 5864 5865 5865 5866 5867 5867 5869 5869 5869 5871 5874 5876 5878 5880 5882 5883
5901 5896 5892 5887 5885 5881 5878 5876 5874 5874 5874 5873 5872 5872 5872 5871 5870 5869 5869 5867 5866 5865 5864 5864 5863 5861 5859 5858 5859 5861 5861 5862 5862 5864 5864 5865 5866 5869 5872 5874 5876 5878 5878
5898 5895 5890 5885 5884 5881 5877 5876 5876 5876 5875 5874 5872 5871 5871 5869 5869 5869 5868 5867 5865 5864 5863 5861 5859 5858 5855 5854 5855 5856 5857 5858 5859 5859 5860 5862 5863 5865 5867 5870 5872 5872 5873